{"data":{"norad_id":68232,"epoch":"2026-05-24T16:50:48.037632Z","epoch_age_seconds":110860,"freshness":"FRESH","line1":"1 68232U 26054A   26144.70194488  .00026748  00000+0  79966-3 0  9992","line2":"2 68232  53.1600 297.0631 0000598  26.7375 333.3658 15.34411131 10723","mean_motion":15.34411131,"eccentricity":5.98e-5,"inclination_deg":53.16,"raan_deg":297.0631,"arg_perigee_deg":26.7375,"mean_anomaly_deg":333.3658,"bstar":0.00079966,"rev_number":1072,"period_min":93.847077286355,"perigee_km":462.26107646138,"apogee_km":463.07923699732,"semimajor_km":6840.8071567294,"source":"CELESTRAK","updated_at":"2026-05-25T13:38:21.882758Z"}}